Location: Asheville, NC
(35.6000°N, 82.5500°W)
Time: 16:39:10
(UTC-04:00)

ISS - Pass Details

Date: 12 May 2026
Orbit: 414 x 424 km, 51.6° (Epoch: 15 May)

Event Time Altitude Azimuth Distance (km) Brightness Sun altitude
Rises 21:04:08 0° 261° (W) 2,337 0.9 -7.8°
Reaches altitude 10° 21:06:35 10° 279° (W) 1,478 0.3 -8.2°
Maximum altitude 21:09:07 20° 329° (NNW) 1,012 -0.9 -8.7°
Drops below altitude 10° 21:11:41 10° 19° (NNE) 1,483 -0.8 -9.1°
Sets 21:14:09 0° 37° (NE) 2,348 0.0 -9.5°
